Weather in Zelenovka

Ukraine / Kherson District     46°43′05″N   32°38′23″E
temp.,
°C
wind,
m/s
gust,
m/s
humid.,
%
clouds,
%
prec.,
mm/h
press.,
hPa
HPBL,
m
5 march, fri
fri523:00+5sw613840 0.0 1014426
02:00+5sw511923 0.0 1013308
05:00+4sw239599 0.0 101276
08:00+6s129083 0.0 1012116
11:00+9ese1274100 0.0 1012563
14:00+10ne2270100 0.0 1011650
17:00+10ene2370100 0.0 1012231
20:00+7ne1278100 0.0 101222
6 march, sat
sat623:00+7sse3483100 0.0 101286
02:00+6wsw3787100 0.0 1013178
05:00+5nnw61093100 0.0 1014388
08:00+2n10147599 0.0 1017737
11:00+3n81152100 0.0 10211147
14:00+4nnw81042100 0.0 10231630
17:00+2n793831 0.0 10251286
20:00−1nnw475516 0.0 1027352
7 march, sun
sun723:00−1wnw34610 0.0 1029163
02:00−1wsw37520 0.0 1029230
05:00−1w49580 0.0 1028349
08:000w47510 0.0 1028457
11:00+4w69360 0.0 10261467
14:00+5wsw810410 0.0 10231501
17:00+4wsw711485 0.0 10211006
20:00+2sw713602 0.0 1021552
8 march, mon
mon823:00+2wsw613690 0.0 1020456
02:00+2wsw613781 0.0 1018469
05:00+1wsw4108845 0.0 1016304
08:00+3wsw597866 0.0 1016479
11:00+7wsw675313 0.0 1015996
14:00+8wsw564114 0.0 10141445
17:00+6wsw465030 0.0 1014481
20:00+3wsw356734 0.0 1014158
9 march, tue
tue923:00+2wsw236940 0.0 101464
02:00+1w347020 0.0 101382
05:00+1nw3887100 0.0 1014377
08:00+1nnw6868100 0.0 1015793
11:00+4nnw574340 0.0 10171691
14:00+5nw674070 0.1 10181849
17:00+3nnw6850100 0.1 10191431
20:00−1nnw696365 0.1 1022730